{"data":{"norad_id":63908,"epoch":"2026-05-25T04:31:29.932032Z","epoch_age_seconds":48996,"freshness":"FRESH","line1":"1 63908U 25095U   26145.18854088  .00006767  00000+0  25516-3 0  9994","line2":"2 63908  42.9981 104.5082 0000996 251.1921 108.8823 15.27584353 59474","mean_motion":15.27584353,"eccentricity":9.96e-5,"inclination_deg":42.9981,"raan_deg":104.5082,"arg_perigee_deg":251.1921,"mean_anomaly_deg":108.8823,"bstar":0.00025516,"rev_number":5947,"period_min":94.266480091394,"perigee_km":482.35268878568,"apogee_km":483.71943445956,"semimajor_km":6861.1730616226,"source":"CELESTRAK","updated_at":"2026-05-25T13:38:20.178767Z"}}